Terug naar catalogus

DELTA 1 DEB

ActiefLEO
NORAD 19429·DEBRIS·🇺🇸 United States

Gelanceerd Jul 14, 1977 vanaf Cape Canaveral Space Force Station

Loading…

Volgende Passages (komende 24 uur)

TLE

VersSource: Space-Track

Epoch: Sep 13, 2026, 09:37 UTC

1 19429U 77065GB  26256.40108209  .00006380  00000-0  67714-3 0  9990
2 19429  29.1038 304.0486 0357745 325.1771  32.5885 14.50193059899501

Volg DELTA 1 DEB in realtime met AllMySat

Download on the App Store